Main page
METAR-TAF:

METAR-TAF

Airports :

RNAS Culdrose (HMS Seahawk)

Culdrose, England

latitude: 50-05N, longitude: 005-15W, elevation: 78 m

Current weather observation

The report was made 1 hour and 2 minutes ago, at 06:50 UTC
Wind 12 kt from the West
Temperature 14°C
Humidity 88%
Pressure 1005 hPa
Visibility 10 km or more

METAR: EGDR 180650Z AUTO 26012KT 9999 // NCD 14/12 Q1005

Time: 08:52 (07:52 UTC)


TAF: missing

Weather observations and forecasts of more than 4000 airports (METAR and TAF reports).

The available stations are represented by yellow and red dots on the map.

Hover mouse over dot to see the name of the station.

Then click to see weather observations and forecasts.

To change the map : click on the green buttons with a black cross to zoom in, on the green button with a dash to zoom out, or on the green arrows for adjacent maps.


METAR-TAF: